CZ-6A DEB

Satellite information

Favourite Embed

Satellite Type and Status

DEBRISIN ORBIT

Key statistics

Satellite CZ-6A DEB at a glance.

Uptime

275

Days in orbit

Revolutions

≈ 14.1

Per day

Orbit

LEO

Low Earth Orbit

Inclination

89.0

Latest

Satellite identification and parameters

Extended collection of information and parameters for CZ-6A DEB.

Object identification

Identified? True

Debris? True

Object name: CZ-6A DEB

International designator: 2024-140ABJ

Object number (NORAD): 61500

Object ID (CCSDS): 61500

Country: PEOPLES REPUBLIC OF CHINA (PRC)

Current information (Y/N): Y

RCS size: SMALL

Orbital parameters

Period: 101.794 minutes

Inclination: 88.9878 deg

SMA: 7221.747 km

Apoapsis: 901.425 km

Periapsis: 785.799 km

RAAN: 320.3616 deg

Eccentricy: 0.0080054

Argument of periapsis: 78.692 deg

Mean anomaly: 282.3249 deg

Mean motion: 14.14618524 rev/day

Mean motion (dot): 0.00003703 rev/day2

B* drag term: 0.0018617 1/REarth

Two-line elements (TLE)

Creation date: May 6, 2025, 10:56 p.m.

Reference frame: TEME

Reference center: EARTH

Epoch: May 6, 2025, 8:09 p.m. UTC

TLE line 0: 0 CZ-6A DEB

TLE line 1: 1 61500U 24140ABJ 25126.83989594 .00003703 00000-0 18617-2 0 9992

TLE line 2: 2 61500 88.9878 320.3616 0080054 78.6920 282.3249 14.14618524 36412

Live tracking on map

Real-time ground track for satellite CZ-6A DEB.

In-orbit conjunctions

A list of the most updated potential collisions computed for object CZ-6A DEB.

Target Orbit TCA Probability of collision Miss distance Type
FENGYUN 1C DEB SSO 2025-04-23 11:49:20 0.0001070679 83.0 (m) DEBRIS
SL-16 R/B LEO 2025-01-30 07:27:48 0.0001274154 885.0 (m) ROCKET BODY
CZ-4 DEB SSO 2024-12-22 20:15:44 0.00022597 811.0 (m) DEBRIS
FENGYUN 1C DEB SSO 2024-12-21 13:53:43 0.0005924 127.0 (m) DEBRIS
FENGYUN 1C DEB SSO 2024-11-19 10:59:43 0.002798995 81.0 (m) DEBRIS

Associated space launch

18 Low Earth Orbit communication satellites with Ku, Q and V band payloads for the G60 constellation operated by Shanghai Spacecom Satellite Technology (SSST) with funding backed by the Shanghai local government. Initial constellation will consist of 1296 satellites by 2027 with long term plans to expand it to 12000 satellites.

CZ-6A DEB was lifted into orbit during the mission ‘Long March 6A | G60 Polar Group 01’, on board a Long March 6A space rocket.

The launch took place on Aug. 6, 2024, 6:42 a.m. from Launch Complex 9A.

For more information about the launch, click the button.

Launch to space Long March 6A | G60 Polar Group 01
Long March 6A | G60 Polar Group 01

Agency: N/A

Status: Launch Successful

Launch date: Aug. 6, 2024, 6:42 a.m. UTC

Rocket: Long March 6A

Launch pad: Launch Complex 9A

Location: Taiyuan Satellite Launch Center, People's Republic of China

...

Latest news about this satellite

News about space launch
Brightness of first Chinese broadband constellation satellites alarms astronomers

The first satellites of a Chinese broadband constellation are significantly brighter than those of Western systems, posing a new challenge for astronomers.

News about space launch
Chinese rocket stage breaks up into cloud of more than 700 pieces of space debris

HELSINKI — A Chinese Long March 6A rocket’s upper stage has fragmented into a cloud of over 700 pieces of space debris, adding to concerns about long-term orbital safety. China […]

News about space launch
China's Thousand Sails Megaconstellation Kicks Off with Dangerous Debris Field

China's Thousand Sails Megaconstellation Kicks Off with Dangerous Debris Field


Newsletter sign-up

Weekly statistics, charts and insights to help you stay on top of the space industry.